Location: Ferchesar
(52.6477°N, 12.4298°E)
Time: 17:08:33
(UTC+01:00)

Vanguard 3 - Pass Details

Date: 12 December 2021
Orbit: 508 x 3260 km, 33.3° (Epoch: 22 January)

Event Time Altitude Azimuth Distance (km) Brightness Sun altitude
Rises 04:05:44 0° 252° (WSW) 6,696 - -35.9°
Reaches altitude 10° 04:10:19 10° 245° (WSW) 5,911 - -35.3°
Exits shadow 04:20:12 32° 220° (SW) 4,571 10.5 -33.8°
Maximum altitude 04:27:14 40° 185° (S) 4,174 10.5 -32.7°
Drops below altitude 10° 04:43:04 10° 125° (SE) 5,545 12.0 -30.3°
Sets 04:47:12 0° 118° (ESE) 6,262 12.6 -29.7°
